Regional Weather Roundup
Issued by NWS

Home | Current Version | Previous Version | Graphics & Text | Print | Product List | Glossary On
Versions: 1 2 3 4 5 6 7 8 9 10 11 12 13 14 15 16 17 18 19 20 21 22 23 24 25 26 27 28 29 30 31 32 33 34 35 36 37 38 39 40 41 42 43 44 45 46 47 48 49 50
000
ASUS43 KMPX 290710
RWRMN
WEATHER ROUNDUP FOR MINNESOTA
NATIONAL WEATHER SERVICE TWIN CITIES/CHANHASSEN MN
200 AM CDT MON MAY 29 2017


NOTE: "FAIR" INDICATES FEW OR NO CLOUDS BELOW 12,000 FEET WITH NO
SIGNIFICANT WEATHER AND/OR OBSTRUCTIONS TO VISIBILITY. N/A MEANS
CURRENT SKY AND/OR WEATHER CONDITIONS ARE NOT AVAILABLE.

MNZ060>063-068>070-290800-
   Twin Cities Metro

CITY           SKY/WX    TMP DP  RH WIND       PRES   REMARKS
TWIN CITIES    MOCLDY    58  46  64 W10       29.71F
ST PAUL        PTCLDY    55  48  77 W5        29.71F
CRYSTAL        MOCLDY    56  46  69 W16G25    29.71R
BLAINE         PTCLDY    55  52  88 W13G18    29.71R
LAKEVILLE      CLEAR     55  46  71 W13G18    29.72F
EDEN PRAIRIE   CLEAR     58  45  62 NW13G24   29.72R
SOUTH ST PAUL  PTCLDY    57  46  68 W7        29.71S
LAKE ELMO      MOCLDY    52  50  93 SW6       29.71F
$$
MNZ001>005-007-008-013>017-022>024-027-028-290800-
   Northwest Minnesota

CITY           SKY/WX    TMP DP  RH WIND       PRES   REMARKS
BEMIDJI        CLOUDY    49  46  90 W12       29.71S
HALLOCK        CLOUDY    52  46  82 NW14G22   29.78R
ROSEAU         CLOUDY    50  45  81 NW12      29.73R
WARROAD        CLOUDY    48  45  87 NW10      29.71S
THIEF RVR FALL LGT RAIN  49  48  97 NW15      29.76S FOG
CROOKSTON      CLOUDY    52  48  87 NW16G22   29.78S
FOSSTON        DRIZZLE   46  46 100 NW8       29.75S
DETROIT LAKES  CLOUDY    50  46  87 NW16      29.78S
MOORHEAD       CLOUDY    52  48  87 NW12      29.80F
PARK RAPIDS    CLOUDY    51  45  79 NW12      29.73S
MAHNOMEN       RAIN      49  47  95 NW10      29.76S
$$
MNZ006-009>011-018-025>026-290800-
   North Central Minnesota

CITY           SKY/WX    TMP DP  RH WIND       PRES   REMARKS
BAUDETTE       CLOUDY    50  47  89 NW13      29.68S
FLAG ISLAND    CLOUDY    48  46  93 NW23      29.68S
INTL FALLS     LGT RAIN  52  48  86 NW10      29.63S
WASKISH        CLOUDY    52  46  82 NW9       29.69S
BIG FORK       CLOUDY    52  48  87 W5        29.66S
LONGVILLE      DRIZZLE   50  48  93 W7        29.69S
GRAND RAPIDS   CLOUDY    52  49  89 NW10      29.68S
CRANE LAKE     LGT RAIN  52  50  93 CALM      29.62S
COOK           CLOUDY    52  50  93 W7        29.63S
WALKER         CLOUDY    49  47  92 W9        29.71S
$$
MNZ012-019>021-037-290800-
   Northeast Minnesota

CITY           SKY/WX    TMP DP  RH WIND       PRES   REMARKS
DULUTH         CLOUDY    52  49  89 W10       29.62F
ELY            CLOUDY    50  48  93 W5        29.60S
HIBBING        CLOUDY    51  49  92 NW8       29.63S
EVELETH        MOCLDY    53  48  83 W8        29.63S
DULUTH HARBOR  CLOUDY    55  52  88 W13       29.63S
TWO HARBORS    MOCLDY    54  48  82 W6        29.59S
SILVER BAY     CLOUDY    54  50  87 W3        29.57F
GRAND MARAIS     N/A     43  43 100 CALM      29.57S
G MARAIS ARPRT CLOUDY    50  46  87 CALM      29.57F
$$
MNZ029>031-032-039>041-046>048-054>057-064-290800-
   West Central Minnesota

CITY           SKY/WX    TMP DP  RH WIND       PRES   REMARKS
FERGUS FALLS   CLOUDY    52  46  82 NW14      29.78S
WHEATON        CLOUDY    54  46  76 W12       29.84S
MORRIS         CLOUDY    54  46  76 W14       29.80S
ALEXANDRIA     CLOUDY    52  48  86 NW15G23   29.78S
ELBOW LAKE     CLOUDY    52  47  82 W14G20    29.80S
WADENA         CLOUDY    50  45  81 NW13G20   29.74S
GLENWOOD       CLEAR     52  48  87 W12       29.78S
APPLETON       CLEAR     54  45  71 W9        29.82R
BENSON         PTCLDY    52  46  82 NW7       29.82S
ORTONVILLE     MOCLDY    54  45  71 NW10      29.83S
MADISON        MOCLDY    54  46  76 W8        29.84S
WILLMAR        CLOUDY    54  48  82 W10       29.81S
$$
MNZ033>034-036-042>043-049>051-058-059-290800-
   Central Minnesota

CITY           SKY/WX    TMP DP  RH WIND       PRES   REMARKS
ST CLOUD       CLOUDY    53  49  86 W13       29.73S
SAUK CENTRE    CLOUDY    51  47  86 W8        29.77S
PAYNESVILLE    CLOUDY    52  46  81 W10       29.78R
AITKIN         CLOUDY    52  46  82 W5        29.68R
PINE RIVER     CLOUDY    50  48  93 W6        29.75S
BRAINERD       CLOUDY    52  47  83 W9        29.72S
STAPLES        CLOUDY    50  46  87 W12       29.73S
LONG PRAIRIE   CLOUDY    50  46  87 W9        29.76S
LITTLE FALLS   CLOUDY    52  46  82 NW9       29.73S
LITCHFIELD     PTCLDY    55  50  82 W10       29.78R
BUFFALO        MOCLDY    55  47  74 W14       29.74S
MAPLE LAKE     CLOUDY    55  49  81 W10       29.75S
HUTCHINSON     CLOUDY    54  48  82 W15       29.78S
$$
MNZ037-044-045-052-053-290800-
   East Central Minnesota

CITY           SKY/WX    TMP DP  RH WIND       PRES   REMARKS
PRINCETON      CLOUDY    54  52  94 W12       29.72R
MORA           CLOUDY    50  46  87 W7        29.71S
CAMBRIDGE      CLOUDY    54  46  76 W7        29.69S
RUSH CITY      CLOUDY    52  48  87 W6        29.69F
MOOSE LAKE     CLOUDY    50  46  87 W6        29.65S
HINCKLEY       CLOUDY    50  48  93 W6        29.68S
CLOQUET        CLOUDY    52  46  82 W8        29.64S
MCGREGOR       CLOUDY    52  48  87 W8        29.68S
$$
MNZ071>073-080-081-089-090-097-098-290800-
   Southwest Minnesota

CITY           SKY/WX    TMP DP  RH WIND       PRES   REMARKS
MONTEVIDEO     CLEAR     54  45  71 NW9G16    29.82S
CANBY          CLEAR     52  45  77 CALM      29.85F
MARSHALL       CLEAR     52  44  74 W13       29.84F
REDWOOD FALLS  CLEAR     53  43  68 W12       29.81S
OLIVIA         CLEAR     54  45  71 W10       29.80S
PIPESTONE      PTCLDY    54  43  66 NW9       29.88S
WINDOM         PTCLDY    52  45  76 W10       29.85R
WORTHINGTON    MOCLDY    53  47  79 NW15      29.87S
JACKSON        PTCLDY    52  45  76 NW12      29.85S
TRACY          CLEAR     53  45  74 W6        29.85S
SLAYTON        PTCLDY    51  44  77 W13       29.88R
$$
MNZ065>067-074>077-082>085-091>093-290800-
   South Central Minnesota

CITY           SKY/WX    TMP DP  RH WIND       PRES   REMARKS
MANKATO        CLEAR     55  45  68 W15G22    29.79R
NEW ULM        CLEAR     54  43  66 W15       29.80S
ST JAMES       PTCLDY    55  45  67 W14       29.83R
FAIRMONT       PTCLDY    56  45  66 NW16      29.83R
GLENCOE        CLOUDY    55  50  82 W15       29.76R
FARIBAULT      PTCLDY    57  45  62 W14       29.75F
OWATONNA       CLEAR     55  43  62 W13       29.76S
WASECA         CLEAR     55  45  67 W21       29.79R
ALBERT LEA     CLEAR     57  46  67 W9G16     29.78S
$$
MNZ078>079-086>088-094>096-290800-
   Southeast Minnesota

CITY           SKY/WX    TMP DP  RH WIND       PRES   REMARKS
ROCHESTER      CLEAR     53  43  68 W12       29.76F
RED WING       PTCLDY    52  48  87 CALM      29.71S
STANTON        PTCLDY    57  45  62 W7        29.72F
DODGE CENTER   CLEAR     54  43  66 W10       29.76R
WINONA         CLEAR     59  45  58 SW3       29.73F
AUSTIN         CLEAR     55  45  67 W12G17    29.77S
PRESTON        CLEAR     54  42  64 W9        29.76F
$$
ABBREVIATIONS USED IN REMARKS
   TC - TEMPERATURES IN CELSIUS
  WCI - WIND CHILL INDEX
   HX - HEAT INDEX
  VSB - VISIBILITY
$$



USA.gov is the U.S. government's official web portal to all federal, state and local government web resources and services.